STARLINK-11204 [DTC] (60931 NORAD) Tracking and Keplerian Element Data

This shows tracking and keplerian element data for the satellite.

Feedback or suggestion? Click here.




ElementValue
Catalog60931
NameSTARLINK-11204 [DTC]
Epoch Orbit608
Epoch Day286.91668981
Epoch Year2024
RAAN348.8992
Inclination53.1589
Eccentricity0.0001075
Argument of Perigee82.5441
Mean Anonmoly57.7023
Mean Motion15.69747222
Decay Rate-0.00074939
L11 60931U 24155H 24286.91668981 -.00074939 00000+0 -61832-3 0 9992
L22 60931 53.1589 348.8992 0001075 82.5441 57.7023 15.69747222 6085



Live tracking and technical data element details for STARLINK-11204 [DTC] (NORAD 60931). STARLINK-11204 [DTC] can be tracked NOW for your location showing map with azimuth and elevation plus other details from your city location.







IsCatalogInMostPopularTable: catalog: 60931, numindb: 10
Update: records affected: 1



GetName: 60931 STARLINK-11204 [DTC]

Hit Count: updated at: Tue, 03 Dec 2024 03:09:28 GMT